Location: Neuvy Saint Sepulchre
(46.5953°N, 1.8122°E)
Time: 08:54:06
(UTC+02:00)

ISS - Pass Details

Date: 11 July 2021
Orbit: 419 x 421 km, 51.6° (Epoch: 04 August)

Event Time Altitude Azimuth Distance (km) Brightness Sun altitude
Exits shadow 02:51:35 10° 282° (WNW) 1,530 -0.9 -20.3°
Reaches altitude 10° 02:51:40 10° 283° (WNW) 1,504 -1.0 -20.3°
Maximum altitude 02:54:49 36° 352° (N) 689 -2.2 -20.1°
Drops below altitude 10° 02:57:58 10° 61° (ENE) 1,504 -0.4 -20.0°
Sets 03:00:11 0° 70° (ENE) 2,369 0.6 -19.9°
